This is the latest recevied weather packets stored in our database for station/object KC4BAM. If no packets are shown the sender has not sent any weather packets the latest 1 day(s).
| Time | Temp. | Humidity | Pressure | Rain* | Wind** | Luminosity | Snow |
|---|---|---|---|---|---|---|---|
| 1778043420 | 20° C | 83% | 996.5 hPa | 0 mm | 1.34 m/s, 189° | 0 W/m² | - |
| 1778043116 | 20° C | 84% | 996.7 hPa | 0 mm | 1.79 m/s, 230° | 0 W/m² | - |
| 1778042814 | 19.44° C | 84% | 996.6 hPa | 0 mm | 2.68 m/s, 241° | 0 W/m² | - |
| 1778042511 | 19.44° C | 84% | 996.7 hPa | 0 mm | 1.34 m/s, 217° | 0 W/m² | - |
| 1778042208 | 19.44° C | 84% | 996.7 hPa | 0 mm | 2.24 m/s, 232° | 0 W/m² | - |
| 1778041906 | 19.44° C | 84% | 996.8 hPa | 0 mm | 1.34 m/s, 203° | 0 W/m² | - |
| 1778041605 | 19.44° C | 85% | 997 hPa | 0 mm | 2.24 m/s, 179° | 0 W/m² | - |
| 1778041303 | 19.44° C | 86% | 996.9 hPa | 0 mm | 2.24 m/s, 227° | 0 W/m² | - |
| 1778041001 | 19.44° C | 86% | 996.9 hPa | 0 mm | 1.79 m/s, 234° | 0 W/m² | - |
| 1778040697 | 18.89° C | 86% | 997.1 hPa | 0 mm | 1.79 m/s, 217° | 0 W/m² | - |
| 1778040395 | 18.89° C | 86% | 997.1 hPa | 0 mm | 1.79 m/s, 218° | 0 W/m² | - |
| 1778040092 | 18.89° C | 87% | 997 hPa | 0 mm | 1.79 m/s, 185° | 0 W/m² | - |
| 1778039789 | 18.89° C | 87% | 997 hPa | 1.78 mm | 1.34 m/s, 228° | 0 W/m² | - |
| 1778039485 | 18.89° C | 88% | 996.8 hPa | 1.78 mm | 1.34 m/s, 219° | 0 W/m² | - |
| 1778039183 | 18.33° C | 88% | 997.3 hPa | 0 mm | 1.79 m/s, 236° | 0 W/m² | - |
| 1778038880 | 18.33° C | 88% | 997.4 hPa | 0 mm | 0.89 m/s, 210° | 0 W/m² | - |
| 1778038577 | 18.33° C | 89% | 997.3 hPa | 0 mm | 0.89 m/s, 196° | 0 W/m² | - |
| 1778038274 | 18.33° C | 89% | 997.1 hPa | 0 mm | 1.34 m/s, 215° | 0 W/m² | - |
| 1778037971 | 18.33° C | 90% | 997.3 hPa | 0 mm | 1.34 m/s, 226° | 0 W/m² | - |
| 1778037668 | 17.78° C | 90% | 997.4 hPa | 0 mm | 1.34 m/s, 170° | 0 W/m² | - |
| 1778037365 | 17.78° C | 90% | 997.5 hPa | 0 mm | 0.89 m/s, 178° | 0 W/m² | - |
| 1778037062 | 17.78° C | 90% | 997.5 hPa | 0 mm | 0.89 m/s, 207° | 0 W/m² | - |
| 1778036760 | 17.78° C | 90% | 997.7 hPa | 0 mm | 0.89 m/s, 216° | 0 W/m² | - |
| 1778036457 | 17.78° C | 90% | 997.5 hPa | 0 mm | 1.79 m/s, 220° | 0 W/m² | - |
| 1778036154 | 17.78° C | 91% | 997.8 hPa | 0 mm | 0.89 m/s, 200° | 0 W/m² | - |
* Rain latest hour (hover to see other rain measurements)
** Current wind speed in m/s (hover to see current wind gust speed)